User: anonymous   Login
Location: Caltech
(34.1382°N, 118.1253°W)
Time: 22:50:43
(UTC-08:00)
Language:

Cosmos 2322 - Orbit

View from above orbital plane
View from above orbital plane
View from above satellite
View from above satellite

Ground track
Ground track

The orbit data is extracted from the following two-line orbital elements,

1 23704U 95058A   16343.79310513 -.00000203 +00000-0 -82582-4 0  9995
2 23704 070.9879 082.8547 0009477 003.0404 357.0774 14.13370269088735
Epoch (UTC): 08 December 2016 19:02:04
Eccentricity: 0.0009477
inclination: 70.9879°
perigee height: 841 km
apogee height: 855 km
right ascension of ascending node: 82.8547°
argument of perigee: 3.0404°
revolutions per day: 14.13370269
mean anomaly at epoch: 357.0774°
orbit number at epoch: 8873

The dashed part of the orbit path shows where the satellite is in the earth's shadow,  

DLR